Retour au catalogue

STARLINK-5734

ActifCommunicationsVLEO
NORAD 55612·PAYLOAD·🇺🇸 United States

Lancé Feb 12, 2023 depuis Cape Canaveral Space Force Station

Loading…

Prochains Passages (prochaines 24 heures)

TLE

FraisSource: CelesTrak SupGP

Époque: Sep 15, 2026, 02:03 UTC

1 55612C 23020AV  26258.08590278 -.00012972  00000+0 -46982-3 0  2580
2 55612  43.0025   5.0239 0001933 269.0802 329.6057 15.27586524    15

Suivez STARLINK-5734 en temps réel avec AllMySat

Download on the App Store